Location: Newark
(34.9500°N, 139.9667°E)
Time: 03:01:46
(UTC+00:00)

Transit 2A - Pass Details

Date: 14 December 2019
Orbit: 601 x 957 km, 66.7° (Epoch: 19 January)

Event Time Altitude Azimuth Distance (km) Brightness Sun altitude
Rises 06:39:17 0° 322° (NW) 2,909 9.0 7.9°
Reaches altitude 10° 06:41:37 10° 313° (NW) 2,032 8.4 7.5°
Maximum altitude 06:45:45 34° 249° (WSW) 1,097 8.1 6.8°
Drops below altitude 10° 06:50:12 10° 184° (S) 2,188 9.0 6.1°
Sets 06:52:49 0° 176° (S) 3,168 9.6 5.6°
